Location: *
(44.3925°N, 5.4708°E)
Time: 22:15:16
(UTC+00:00)

HJ-1C - Pass Details

Date: 18 September 2019
Orbit: 434 x 449 km, 97.2° (Epoch: 21 October)

Event Time Altitude Azimuth Distance (km) Brightness Sun altitude
Rises 18:18:05 0° 151° (SSE) 2,432 6.7 -6.9°
Reaches altitude 10° 18:20:09 10° 144° (SE) 1,569 5.7 -7.3°
Maximum altitude 18:23:20 41° 73° (ENE) 664 3.8 -7.8°
Drops below altitude 10° 18:26:33 10° 2° (N) 1,588 6.3 -8.4°
Sets 18:28:40 0° 355° (N) 2,467 7.4 -8.8°
